User: anonymous   Login
Location: Krasnoyarskiy Pitomnik
(51.1333°N, 71.6167°E)
Time: 17:58:58
(UTC+00:00)
Language:

HAWK-3A - Orbit

View from above orbital plane
View from above orbital plane
View from above satellite
View from above satellite

Ground track
Ground track

The orbit data is extracted from the following two-line orbital elements,

1 48957U 21059CG  22222.38751208  .00004890  00000-0  25880-3 0  9991
2 48957  97.5589 352.2147 0015228 277.7319  82.2184 15.15817959 62145
Epoch (UTC): 10 August 2022 09:18:01
Eccentricity: 0.0015228
inclination: 97.5589°
perigee height: 508 km
apogee height: 529 km
right ascension of ascending node: 352.2147°
argument of perigee: 277.7319°
revolutions per day: 15.15817959
mean anomaly at epoch: 82.2184°
orbit number at epoch: 6214

The dashed part of the orbit path shows where the satellite is in the earth's shadow,  

DLR